Wind_Speed
17 15 15 15 15 15 15 15 14 13 13 13 14 14 13 13 13 13 14 14 14 15 15 15 15 15 14 13 13 13 13 13 14 14 14 14 14 15 15 15 15 15 14 14 13 13 13 14 14 14 15 15 15 15 15 15 15 15 14 13 12 11 10 10 10 10 10 10 11 11 10 10 9 8 8 8 7 8 8 8 7 6 5 5 6
18 16 15 15 15 15 14 14 13 12 12 12 13 13 13 12 12 12 13 14 14 14 15 15 15 15 14 13 12 12 12 13 13 14 14 14 14 14 14 14 14 14 14 14 13 14 16 16 16 16 16 16 15 15 15 15 15 16 16 15 14 13 11 10 9 9 9 9 9 9 9 8 8 8 7 6 6 7 7 7 8 6 5 5 7
19 16 16 15 15 15 15 14 13 12 11 11 13 13 12 12 12 12 13 14 14 14 15 15 15 15 14 13 13 13 13 13 13 14 15 14 14 14 13 13 13 13 13 13 13 14 15 15 15 15 15 15 15 15 15 14 14 15 15 15 15 14 13 11 10 9 9 9 9 8 7 6 6 7 6 6 5 6 6 6 7 7 6 5 8
19 16 16 15 14 15 15 14 13 12 11 12 12 12 12 11 11 12 13 14 14 14 15 15 15 14 14 14 14 13 13 13 13 14 14 14 13 13 13 12 12 12 12 11 11 12 13 13 13 13 14 14 15 15 15 14 13 13 13 13 14 14 13 12 11 10 10 9 9 8 6 6 5 5 5 6 5 5 5 5 5 5 5 5 7
19 17 16 15 14 14 14 14 13 12 11 12 12 12 11 11 11 12 13 14 15 14 15 15 14 14 14 14 13 13 13 13 14 14 14 14 12 12 11 11 10 10 9 9 9 11 12 12 13 13 14 14 14 14 15 14 13 13 12 11 11 12 11 10 10 10 10 10 10 8 6 6 4 3 4 5 5 5 5 5 5 4 5 4 5
19 18 16 15 14 14 14 14 13 12 11 11 12 11 11 12 11 12 13 15 15 14 14 14 14 14 14 13 13 13 13 13 13 14 14 13 12 11 11 10 9 9 9 10 11 12 12 12 12 13 13 13 13 13 14 13 13 12 11 11 10 9 9 8 9 9 10 10 9 7 6 6 4 3 4 4 4 4 5 6 6 5 5 5 4
17 17 15 14 14 14 14 13 12 11 11 11 11 11 11 11 12 13 13 15 15 14 13 13 13 13 13 13 13 12 13 13 13 14 13 13 12 11 11 10 10 10 10 11 11 12 12 12 12 13 13 12 13 13 13 13 12 12 11 10 9 8 7 7 7 7 9 9 7 7 7 6 5 4 5 5 4 5 5 5 5 5 5 6 4
16 16 16 14 14 14 14 12 11 10 10 10 11 11 10 10 12 13 13 14 15 14 13 13 13 13 13 13 13 13 13 13 13 13 12 12 12 12 11 11 10 10 10 10 11 12 12 12 12 12 11 12 12 12 12 12 11 11 11 10 9 8 7 6 6 7 7 6 6 7 7 6 4 4 6 6 7 6 6 5 4 3 4 5 5
16 17 16 15 14 14 14 12 11 10 10 10 11 11 11 11 11 12 13 13 14 14 13 12 12 13 13 13 13 14 14 14 13 13 12 12 12 12 11 11 11 11 10 9 10 11 11 10 11 10 10 10 11 11 11 11 10 10 9 9 9 8 7 6 6 7 5 4 6 6 7 7 5 3 4 6 7 7 6 6 5 3 3 4 5
17 17 15 14 14 13 12 12 11 11 10 10 10 10 10 10 11 12 12 13 13 13 13 12 12 13 13 13 14 14 14 13 13 12 12 12 12 12 12 13 13 12 11 9 9 9 9 9 9 9 9 10 12 12 12 11 10 10 9 9 9 8 7 6 7 7 4 4 6 5 5 7 5 3 3 5 6 6 6 5 5 4 3 3 5
17 16 13 14 14 12 11 11 11 11 10 10 10 10 10 10 10 11 12 12 13 13 12 12 12 12 13 13 13 13 13 12 11 11 11 11 11 12 13 13 13 12 10 10 9 9 9 8 9 10 11 11 12 12 12 12 11 10 9 9 8 8 6 6 7 5 4 4 6 5 4 6 4 3 3 4 5 5 4 3 3 3 3 3 4
16 15 13 13 13 11 11 11 11 11 10 11 10 9 10 10 10 10 11 12 12 12 12 12 12 12 12 12 12 12 12 11 10 10 10 10 10 11 12 12 11 10 9 10 9 9 9 9 10 11 12 12 12 11 11 11 10 10 9 9 8 7 7 6 6 4 4 4 6 6 4 5 3 2 3 4 5 4 3 2 1 1 1 2 2
16 14 13 13 12 10 10 10 10 10 10 10 10 9 10 11 10 10 11 12 12 12 12 11 12 12 12 12 12 11 11 10 9 9 8 8 8 9 11 10 9 9 8 9 10 10 10 10 11 12 12 11 11 10 10 10 10 9 9 9 8 7 7 7 5 3 4 4 4 6 5 6 3 2 4 4 5 4 4 3 2 2 2 1 1
15 13 12 12 11 10 9 10 10 10 10 10 10 10 10 11 11 11 11 12 12 12 12 11 11 12 12 12 12 11 10 10 8 7 7 7 7 8 9 9 9 8 8 9 10 11 11 11 11 11 12 11 10 9 10 10 9 8 8 7 7 6 7 7 5 3 4 4 4 6 5 5 5 4 5 5 6 6 5 5 4 4 3 3 2
14 12 12 11 11 10 9 9 10 10 9 9 9 10 10 11 11 11 11 11 12 12 12 12 11 11 12 12 12 11 10 10 8 6 6 7 7 8 8 8 8 8 8 9 10 11 11 10 10 11 12 11 11 10 10 10 8 8 7 6 6 5 7 6 2 2 4 5 6 7 5 4 6 5 5 6 6 6 6 5 4 4 3 3 4
13 12 11 11 11 10 9 9 9 10 9 9 9 10 11 11 11 10 10 11 11 12 12 11 11 11 12 11 12 11 10 10 8 5 6 7 7 8 8 8 8 9 10 10 10 11 11 10 10 11 12 12 11 11 10 9 8 7 6 6 5 5 7 6 3 3 4 5 6 8 6 4 6 5 5 6 6 6 5 5 4 4 4 5 5
13 12 11 11 11 10 10 9 9 9 10 10 10 11 12 12 11 10 10 11 11 12 11 11 11 11 11 10 11 11 9 9 8 6 7 8 8 9 9 9 9 10 10 10 11 10 10 11 11 12 12 12 11 10 9 9 8 7 7 6 6 6 7 8 5 2 4 6 7 7 6 4 6 5 5 6 5 6 5 5 4 4 4 5 6
13 12 11 11 11 11 11 11 10 10 10 11 11 11 13 12 11 11 11 10 11 12 12 11 10 10 11 10 11 10 9 9 7 7 9 9 9 9 9 10 10 10 11 11 11 10 10 11 12 12 12 12 11 10 10 9 9 8 8 7 8 8 7 9 6 2 4 6 7 6 6 5 6 5 5 5 6 6 6 5 4 4 5 5 6
12 11 11 11 11 11 11 11 11 11 10 10 11 11 12 12 11 12 11 10 11 12 13 12 11 10 10 11 11 10 9 9 7 8 9 9 10 10 10 11 11 11 12 11 11 10 10 11 12 12 12 11 11 11 10 9 9 8 8 8 9 9 9 9 6 4 5 6 6 5 5 5 5 5 5 5 6 7 6 6 5 5 6 6 7
11 11 11 10 10 10 10 10 11 11 10 10 10 11 11 11 11 12 11 11 11 12 13 13 12 11 11 11 10 9 10 8 6 7 9 9 10 10 11 12 12 12 12 11 10 9 10 11 12 12 11 11 11 11 10 10 10 10 10 10 10 11 10 8 5 6 6 5 6 6 5 5 5 5 5 6 7 7 6 6 6 6 7 7 8
12 11 10 10 9 9 9 10 10 10 10 10 10 10 10 11 11 11 12 12 12 12 14 14 13 13 12 11 10 9 10 7 6 7 9 10 9 10 11 12 12 12 11 10 9 9 10 11 11 11 11 11 12 12 11 10 11 11 11 10 12 11 8 6 5 7 6 6 8 8 8 8 7 6 5 6 6 5 5 5 6 6 7 7 8
12 12 11 11 10 10 9 10 11 10 10 9 10 10 10 11 10 10 11 12 12 12 13 13 12 12 11 11 11 10 9 8 8 9 9 10 10 11 12 11 11 10 9 8 7 9 10 11 11 11 11 10 12 12 9 9 10 10 10 11 12 9 8 8 6 7 7 8 10 10 10 11 10 9 7 7 6 6 5 6 7 7 7 7 8
12 12 11 12 11 11 9 9 10 11 11 9 10 9 10 11 11 11 11 10 11 11 12 12 11 11 11 11 11 10 10 9 10 11 11 11 12 12 12 10 9 8 7 6 6 8 9 10 10 10 10 9 10 10 7 6 8 8 9 11 9 7 8 9 7 7 8 8 11 10 10 10 10 10 10 10 8 8 7 7 7 8 8 8 8
12 12 12 13 12 11 10 10 10 11 11 10 10 8 8 10 10 10 10 9 10 10 10 11 11 11 11 10 9 10 10 9 10 12 11 12 12 12 11 9 7 6 5 6 6 7 9 9 9 8 8 8 6 7 6 5 6 7 8 8 7 6 7 7 6 7 7 8 9 8 8 9 9 9 10 10 9 9 8 8 8 9 9 8 8
12 12 12 13 13 12 12 11 10 11 11 11 10 8 8 8 8 8 9 9 9 9 9 10 10 11 10 9 8 9 9 8 10 11 12 14 14 11 9 6 5 4 4 5 5 5 7 6 7 6 6 5 5 5 5 5 6 6 6 6 6 6 5 5 5 6 7 7 8 7 7 7 7 7 8 9 8 7 7 7 7 8 9 8 8
12 12 12 13 13 13 12 12 11 11 10 10 10 8 8 7 7 7 8 8 8 8 8 9 9 9 10 9 8 9 8 7 9 12 14 14 13 10 7 6 5 4 4 5 4 5 5 4 4 4 4 4 4 5 5 5 5 5 6 6 6 6 5 5 4 6 7 7 8 7 7 7 7 6 7 7 6 6 6 6 6 7 8 8 8
12 12 12 12 13 13 13 13 12 11 11 10 10 9 9 8 7 7 7 7 7 7 7 8 8 9 9 8 8 8 7 7 8 12 14 13 11 8 6 5 5 3 4 4 4 4 4 4 4 3 4 4 3 4 5 5 5 4 4 5 6 5 5 5 3 5 6 6 7 7 7 8 7 7 7 6 5 4 4 4 5 6 8 8 7
12 12 12 12 12 13 14 13 13 12 11 11 10 10 10 9 8 7 7 7 7 6 7 8 8 9 9 8 9 9 7 6 8 10 12 12 10 8 5 4 4 3 4 4 4 4 4 4 4 4 4 4 4 4 4 3 4 4 3 4 4 3 4 4 2 4 5 5 5 6 6 6 7 6 7 7 5 3 3 3 4 4 6 7 7
12 12 12 11 11 12 13 14 13 12 12 12 11 11 11 10 9 8 7 8 8 7 8 8 8 9 10 10 10 10 8 6 6 9 11 12 10 7 5 3 3 3 4 3 3 4 4 4 4 4 4 4 4 3 3 3 2 2 2 2 2 2 3 3 2 3 3 4 5 4 5 6 6 6 6 6 6 4 3 3 3 4 4 6 7
11 11 11 11 11 12 12 13 13 12 12 12 12 12 11 11 10 9 8 9 9 9 8 7 8 9 9 11 10 10 9 6 6 11 13 13 10 6 4 3 3 3 3 3 3 4 4 3 3 3 3 3 3 2 2 1 1 1 2 2 2 2 3 3 3 3 2 5 6 5 4 5 5 6 6 5 5 4 4 3 3 4 4 5 6
11 11 11 11 11 11 11 12 13 12 12 12 13 13 12 11 11 11 9 9 10 9 9 8 9 9 9 11 11 11 10 7 8 12 13 11 8 6 4 3 2 2 3 3 3 3 3 3 2 2 2 2 2 2 1 1 2 2 2 3 3 3 3 4 4 4 3 4 8 8 6 5 5 5 6 5 5 5 4 4 4 5 5 5 5
10 11 11 10 10 10 10 11 11 12 12 12 13 13 12 12 12 11 10 11 10 10 9 9 10 10 10 10 11 11 9 8 9 12 13 11 7 5 3 2 2 2 2 2 2 3 3 2 2 2 2 2 1 2 2 2 3 3 3 3 4 4 4 5 5 5 4 5 8 9 8 8 7 6 5 6 6 5 5 5 6 6 5 6 6
9 10 10 9 9 10 11 11 11 12 11 11 12 12 12 12 12 12 12 12 11 10 9 10 11 11 11 11 11 11 9 8 10 12 13 11 8 6 4 2 2 2 1 1 2 2 2 2 2 2 2 1 2 2 3 3 3 3 4 4 4 4 4 5 5 5 5 5 6 6 7 9 10 10 8 7 7 7 6 6 7 7 7 7 7
8 9 9 9 9 10 11 11 11 12 11 12 12 12 10 11 13 13 13 13 12 11 11 11 12 11 12 11 10 11 9 9 10 11 12 10 7 6 4 2 2 2 0 1 1 1 1 1 2 1 1 1 2 3 3 4 4 4 4 4 4 4 5 6 6 6 6 6 6 6 7 8 10 11 11 11 10 9 8 7 8 8 9 8 8
8 8 9 9 9 9 10 10 11 12 12 13 13 12 10 10 11 12 13 14 13 13 12 12 13 12 12 11 10 10 9 9 10 10 13 11 6 5 4 3 4 1 1 2 1 1 2 2 2 2 2 2 2 3 4 4 4 4 4 4 4 4 5 6 6 6 6 6 6 7 7 8 8 9 10 10 11 10 8 8 9 9 10 9 8
8 8 10 10 10 9 9 9 10 10 12 13 12 12 11 10 11 12 13 14 14 14 14 14 14 12 11 10 10 10 9 10 10 11 13 11 6 4 4 5 5 2 2 3 1 2 2 2 2 3 3 4 4 4 4 4 5 4 4 4 4 4 5 6 6 7 6 6 7 7 8 8 9 9 10 10 11 11 8 8 10 9 10 11 9
8 8 10 10 10 10 9 8 9 10 12 13 12 13 12 12 11 11 12 13 13 12 13 14 13 11 10 10 11 11 10 9 10 11 12 9 6 4 3 5 4 3 3 2 2 2 2 3 3 3 3 4 5 5 5 5 5 5 5 4 4 5 6 6 7 7 7 7 7 7 8 8 9 10 10 9 10 12 10 8 9 10 10 11 10
8 8 11 11 11 11 9 8 10 10 12 13 12 12 11 12 11 9 11 14 12 10 11 12 12 11 11 11 11 11 10 10 10 11 11 9 7 5 4 4 3 3 3 1 2 3 2 3 3 4 4 4 5 6 6 6 6 6 6 5 5 6 6 7 7 7 7 7 7 7 9 8 8 8 8 8 9 12 12 10 9 10 10 11 9
10 8 11 11 11 12 10 9 10 10 11 12 12 11 10 11 11 10 11 13 13 12 12 12 12 11 11 12 12 12 11 10 10 11 11 9 7 5 5 4 3 3 3 2 2 2 2 2 2 4 4 4 5 6 6 7 7 7 7 7 6 6 6 6 7 7 6 7 7 8 9 8 7 7 8 9 9 12 12 12 13 11 10 10 9
10 9 11 11 10 13 12 11 10 11 12 12 11 10 10 12 11 10 11 12 14 14 13 13 13 11 11 13 13 13 12 11 10 11 11 10 7 5 6 5 3 2 2 2 2 3 3 2 3 6 4 4 6 6 6 6 7 7 6 7 6 5 5 5 5 5 5 5 5 6 7 7 7 7 7 7 8 10 8 11 15 12 10 9 8
10 11 13 12 11 12 13 12 11 11 12 12 12 11 12 13 12 11 11 11 14 15 13 13 13 12 13 14 14 14 12 11 11 11 11 10 9 6 6 6 4 3 3 3 4 6 6 3 4 6 5 5 6 5 5 6 6 6 6 7 5 4 4 4 5 4 4 5 5 5 6 6 6 6 6 6 6 7 6 9 13 12 10 10 8
11 11 12 12 11 11 12 13 12 11 12 11 12 13 13 12 11 11 11 11 13 15 13 13 13 12 15 15 15 15 13 12 12 12 11 11 10 7 6 7 6 6 6 5 6 8 7 5 4 5 5 6 6 5 5 6 6 6 7 7 5 4 3 3 5 4 5 6 5 5 6 6 6 5 6 6 6 7 5 6 8 8 10 10 8
8 8 11 11 11 11 12 13 12 11 11 11 12 12 12 12 11 11 12 11 12 13 12 13 14 13 15 17 16 15 14 12 12 12 11 11 10 8 5 5 7 7 6 5 6 7 6 5 5 5 5 6 6 5 5 6 6 7 7 6 6 5 3 3 5 4 5 6 5 6 6 6 6 6 7 6 5 6 6 5 6 8 10 8 7
7 5 8 10 11 12 12 13 13 11 10 11 12 11 11 12 12 12 13 12 12 14 13 14 16 14 14 16 16 15 14 13 13 12 12 11 12 9 6 4 6 7 6 5 5 5 5 5 5 5 6 7 6 5 5 5 6 6 6 6 7 5 3 5 7 5 6 6 6 6 6 7 7 7 9 7 5 6 6 6 5 9 10 7 6
7 6 7 9 10 11 12 13 12 10 9 10 11 11 12 12 12 12 13 13 14 15 16 15 16 16 14 14 16 16 15 14 14 13 12 12 12 11 9 6 5 7 5 4 4 4 5 5 6 6 6 6 6 5 5 5 5 5 6 6 6 5 5 8 8 6 6 7 8 7 6 8 8 8 8 6 6 6 6 6 5 7 8 6 5
8 6 7 8 9 10 12 12 11 8 9 10 10 11 12 11 12 12 12 13 14 14 15 14 14 16 14 13 15 16 16 15 14 13 12 12 12 11 11 7 5 6 5 5 5 5 5 4 5 5 5 5 6 5 5 5 5 5 5 5 5 6 7 9 8 7 7 6 9 9 9 10 9 8 8 6 6 5 5 6 5 6 7 5 4
8 6 6 8 9 10 11 12 11 9 11 11 10 10 10 10 11 12 13 13 13 13 15 13 13 14 13 13 14 15 16 15 13 13 13 12 12 11 11 9 6 5 5 5 4 4 5 5 5 5 4 6 5 5 5 5 5 5 5 5 5 6 7 7 7 8 8 7 9 10 9 10 8 7 8 7 6 6 6 6 5 5 5 4 4
7 7 6 8 10 11 12 12 10 9 10 10 10 10 10 11 12 13 13 14 13 13 16 15 13 14 15 14 14 14 15 15 14 15 15 13 12 12 11 10 8 6 6 5 4 5 5 5 6 6 5 6 5 4 5 5 5 5 5 6 6 6 6 6 6 8 8 9 10 9 8 8 7 7 8 7 7 6 5 6 4 3 3 4 5
7 7 7 8 10 11 12 12 11 8 8 9 9 11 11 11 12 13 14 14 14 14 17 17 15 16 17 16 14 13 14 15 16 16 16 14 13 12 11 10 9 7 6 5 5 6 6 7 7 6 5 5 5 5 5 5 5 5 6 7 7 7 6 6 6 7 7 8 9 9 9 9 8 7 7 7 7 6 5 5 4 2 1 3 4
8 8 8 8 10 11 11 12 12 8 7 8 9 10 11 11 12 14 14 14 15 14 16 17 17 18 18 17 17 15 13 13 15 15 16 15 14 13 11 10 9 8 7 7 7 7 7 7 6 6 7 6 5 6 6 5 5 5 6 7 7 7 6 6 6 6 7 8 9 10 10 9 9 8 7 7 7 6 5 3 3 2 1 2 2
9 9 9 9 9 11 11 12 12 8 7 8 9 10 12 12 12 14 13 13 14 14 15 17 18 19 19 17 16 16 14 13 13 14 15 14 14 14 12 11 9 9 9 9 8 7 7 6 6 7 8 7 6 6 6 5 5 6 6 6 7 6 6 6 6 6 7 8 9 10 10 9 9 8 8 7 6 6 4 2 2 2 1 1 1
Wind_Direction
155 151 150 150 143 138 136 136 134 133 131 131 128 126 125 121 119 118 117 117 122 123 121 120 118 114 111 109 107 109 110 111 111 112 112 111 110 111 112 110 108 103 100 97 94 91 92 97 102 102 99 95 92 90 89 89 90 95 100 105 108 108 111 113 116 117 118 120 122 124 124 124 120 117 117 117 119 123 123 124 119 117 133 153 148
153 150 152 153 145 140 138 138 135 134 131 130 127 125 125 123 124 122 122 122 123 125 123 121 118 113 110 107 105 106 109 113 116 117 116 114 112 111 111 109 106 104 102 99 95 91 95 100 100 99 96 93 90 89 89 89 91 93 96 100 103 106 112 117 123 125 124 124 126 125 123 125 123 122 123 125 127 128 129 129 126 128 148 150 138
148 149 154 155 146 142 142 140 139 136 133 130 126 125 126 127 129 127 126 125 125 127 124 122 119 114 111 107 102 100 101 108 115 121 120 117 115 113 111 109 106 105 104 102 98 94 99 102 98 97 94 92 90 88 88 86 88 93 97 98 100 102 105 110 118 126 129 126 123 120 118 120 124 130 132 133 130 131 134 136 136 142 152 139 128
146 150 155 154 147 145 145 143 141 140 135 129 126 128 128 128 130 129 129 127 128 129 126 125 121 115 113 108 102 98 98 102 109 119 123 120 117 115 113 112 110 106 105 103 99 98 105 106 99 98 96 94 89 87 84 81 83 89 95 98 100 100 101 104 109 119 125 127 124 116 113 115 124 136 137 135 133 133 130 137 144 146 142 129 125
149 152 155 153 150 148 145 142 141 142 135 129 130 131 130 129 128 131 132 131 131 131 129 127 123 117 114 110 104 100 99 100 104 113 122 124 121 118 117 116 112 108 106 103 101 102 112 111 101 99 99 94 90 88 83 79 79 83 90 93 95 96 96 100 107 115 119 125 125 119 117 115 119 135 140 133 131 132 126 132 142 146 132 117 115
151 151 152 152 152 150 145 143 143 141 134 132 134 133 130 129 129 132 134 133 133 133 131 126 124 119 116 113 108 103 99 101 103 109 117 124 125 124 122 120 117 113 110 105 103 105 114 113 105 103 100 96 96 95 89 82 79 82 87 88 88 88 89 94 103 114 122 121 116 116 124 124 126 142 149 141 132 130 125 126 131 135 123 118 120
147 147 151 152 151 150 145 143 144 141 138 137 135 132 128 130 132 134 135 134 134 133 130 127 123 119 117 116 110 104 100 100 101 104 111 118 122 123 122 121 120 118 112 105 103 106 112 112 109 105 101 101 101 99 94 86 84 86 86 87 85 83 85 89 95 110 123 120 112 116 122 125 126 134 139 135 128 125 122 117 117 122 121 125 131
145 150 151 150 150 151 147 146 149 148 146 143 139 136 134 136 137 137 138 137 137 135 132 128 123 121 121 119 110 104 102 100 98 98 103 110 113 116 117 116 116 113 110 106 106 109 112 114 113 109 105 104 100 99 96 88 87 88 86 87 85 83 83 84 90 99 106 114 120 123 120 114 113 121 124 121 118 119 119 108 100 105 117 128 138
150 151 149 149 153 154 150 152 155 154 154 149 145 143 143 144 143 143 144 141 139 137 133 130 125 122 124 120 112 107 105 101 97 96 98 104 109 112 114 112 109 104 104 107 108 110 113 117 116 111 105 100 95 94 93 90 92 91 86 82 79 79 82 81 83 86 88 110 121 124 118 103 102 115 113 114 115 119 122 116 107 104 113 129 144
151 147 145 150 157 158 155 157 157 159 161 154 149 147 146 147 147 148 148 145 140 138 135 132 127 124 126 122 115 112 107 102 98 95 95 103 109 111 109 103 98 96 97 101 107 111 115 117 114 108 100 95 94 93 91 91 91 88 81 75 70 68 75 78 69 75 91 110 111 116 121 110 112 124 114 117 116 120 125 123 119 121 134 149 159
148 142 143 151 160 164 161 158 157 160 161 157 153 148 147 149 149 149 150 147 142 140 137 135 131 129 130 124 119 116 110 105 101 96 95 100 108 107 100 92 89 91 91 94 103 112 115 117 112 107 103 101 98 95 91 86 83 79 74 68 65 62 68 79 70 71 93 101 104 99 98 100 103 116 120 120 115 114 117 121 129 143 161 172 179
146 142 149 155 160 164 158 155 155 156 159 159 157 152 148 151 153 152 152 150 146 144 141 138 134 134 133 127 123 120 113 109 105 101 98 100 110 110 103 97 94 93 91 94 101 109 112 114 111 109 109 107 102 96 89 82 76 72 68 66 62 66 69 73 73 67 75 87 106 104 98 96 95 117 118 113 110 107 104 105 114 146 177 178 193
145 146 155 156 159 160 153 152 153 153 156 159 160 158 154 155 157 156 154 154 152 147 144 140 137 137 135 131 129 124 117 112 109 106 104 106 114 117 114 112 110 105 97 96 104 112 112 112 110 109 110 108 104 98 91 82 75 68 63 64 61 69 76 71 72 77 83 82 99 109 118 117 114 111 106 101 100 92 84 72 46 27 357 320 261
145 148 153 154 158 155 152 150 150 151 153 159 164 165 164 160 158 158 158 157 153 149 145 140 141 140 136 134 133 130 125 117 113 113 113 116 121 123 121 119 117 111 102 103 112 118 116 114 111 109 110 110 109 103 95 84 76 69 61 63 65 73 80 69 59 67 92 99 105 103 98 109 118 110 101 94 88 79 69 57 40 27 7 347 324
146 148 150 155 157 152 152 149 149 150 153 162 169 173 170 164 159 158 161 156 151 151 147 142 144 143 140 138 137 136 131 122 117 119 123 128 134 131 127 121 116 114 113 115 120 121 119 117 113 111 111 111 110 101 91 84 76 71 64 64 66 79 93 84 74 99 101 104 106 102 91 105 120 113 102 91 82 74 63 51 36 17 359 337 325
149 150 150 155 155 153 153 149 150 150 152 156 162 176 172 163 159 157 160 157 152 152 150 147 147 147 143 140 140 138 135 126 119 129 136 137 139 133 129 124 122 124 126 124 123 122 119 116 113 111 110 107 101 92 85 80 73 69 65 66 71 88 105 104 108 110 110 112 105 104 102 115 122 114 101 90 81 75 64 49 25 2 344 322 314
155 151 152 157 158 158 156 150 149 148 148 144 148 166 166 160 160 159 164 162 156 154 153 151 151 149 143 143 144 140 136 127 123 140 139 135 135 130 129 126 125 126 127 128 124 121 117 114 113 109 106 101 94 88 81 74 69 68 68 71 85 90 99 100 91 84 106 114 111 111 115 128 125 115 102 92 86 79 66 54 27 360 341 319 313
156 153 159 162 165 164 160 152 148 151 152 149 150 157 159 159 162 164 167 163 157 158 158 155 156 154 148 152 151 147 142 128 128 144 138 136 134 131 131 128 127 123 123 126 125 123 118 115 112 107 102 97 91 85 77 74 70 71 76 79 86 88 93 94 86 85 96 100 107 112 122 133 124 111 104 98 89 80 69 61 43 20 3 340 324
155 157 164 168 174 167 162 156 154 161 158 157 157 159 162 161 164 165 167 164 160 164 165 161 161 159 156 159 154 148 140 128 137 144 140 141 137 135 136 132 128 121 120 124 126 126 122 117 110 103 98 92 86 82 79 79 81 82 83 82 87 90 86 81 78 86 85 89 101 107 119 125 115 102 96 93 88 82 72 59 42 25 18 6 350
159 165 167 169 180 172 165 164 165 166 163 164 159 163 167 163 165 164 168 169 165 167 169 169 167 165 162 160 154 141 129 127 142 145 145 145 141 140 138 134 126 121 121 124 127 126 120 113 104 99 94 89 85 85 87 89 91 90 86 86 88 84 74 66 70 79 75 81 94 94 100 105 98 91 86 84 83 78 68 51 32 20 18 17 10
168 173 175 173 179 179 175 172 175 173 167 168 160 164 168 165 166 162 166 170 167 165 169 172 169 169 165 156 149 138 131 137 152 150 150 144 141 142 137 132 124 122 125 126 127 121 111 103 97 95 89 89 91 84 83 90 90 86 86 86 79 73 73 72 67 75 76 78 84 83 88 91 89 91 91 85 80 69 54 36 22 16 17 17 14
174 178 183 181 179 181 184 180 182 182 175 170 163 169 170 167 168 163 165 169 166 162 165 168 167 168 164 155 150 149 154 164 167 156 151 146 142 142 138 132 126 126 128 126 120 107 101 97 91 89 87 93 95 83 78 86 87 87 85 77 71 70 81 84 76 80 82 78 79 80 82 83 84 86 87 85 83 71 54 36 26 17 19 19 14
176 181 186 186 183 182 187 186 189 189 185 179 173 176 174 169 168 167 167 169 166 161 163 167 167 168 166 163 161 168 171 166 161 151 146 145 143 144 140 134 130 131 130 118 105 96 93 93 88 87 90 91 88 84 82 78 77 78 71 67 71 76 78 79 78 79 74 70 74 74 73 75 76 77 80 82 82 78 66 51 42 28 25 24 19
177 180 187 188 186 185 186 189 193 194 191 186 183 182 181 174 167 168 169 168 168 166 171 173 172 174 170 170 169 171 166 153 147 142 142 142 143 145 141 138 133 131 126 102 89 91 91 89 88 89 89 88 84 87 91 81 71 67 63 65 75 78 72 72 76 76 70 67 68 64 61 65 68 71 77 80 80 79 68 52 43 36 33 29 24
178 179 188 190 188 188 186 188 192 194 194 188 187 191 192 181 171 175 171 168 171 170 180 182 179 177 169 167 165 163 156 149 146 142 145 146 145 144 140 142 131 127 117 91 83 86 86 85 87 88 88 95 100 96 95 87 79 75 74 76 77 77 73 71 71 71 69 67 67 58 53 56 59 66 73 77 77 75 68 51 37 31 30 27 25
182 182 188 192 191 191 186 186 191 194 196 192 190 199 199 186 182 188 176 174 177 172 181 187 183 177 168 163 159 159 154 150 151 148 148 146 146 145 144 143 121 116 107 85 81 81 84 91 92 100 108 108 107 108 106 93 86 78 74 74 74 77 75 73 62 60 66 65 64 56 50 52 50 56 65 73 75 71 67 54 36 24 18 19 22
185 186 188 193 193 193 190 186 190 194 197 198 196 201 203 196 196 196 183 180 180 173 182 188 186 178 170 164 159 157 151 149 155 154 150 146 147 149 149 136 113 111 106 87 82 83 89 103 104 118 121 116 116 113 107 99 99 85 70 67 67 68 63 67 51 42 56 56 57 49 42 49 47 48 57 64 70 64 60 51 38 24 12 9 12
186 186 188 195 195 195 196 190 190 194 197 200 199 202 205 204 203 199 192 188 180 179 191 192 190 184 175 169 164 157 149 153 159 157 155 154 155 153 142 127 119 114 103 90 88 90 94 102 102 111 116 117 117 114 110 101 96 85 72 58 56 56 45 51 27 15 31 29 40 42 29 33 36 38 46 52 52 44 38 32 28 24 14 2 359
185 187 188 192 195 199 201 196 196 198 198 199 200 203 206 206 206 201 199 194 185 191 199 196 196 193 184 172 164 160 152 151 163 165 165 163 162 156 137 132 133 112 98 93 93 92 97 101 99 103 108 111 110 110 113 101 83 68 56 40 31 24 19 21 360 1 360 351 15 33 18 12 13 15 19 30 32 23 10 360 355 360 5 353 350
183 186 190 190 195 202 203 200 203 203 201 200 200 205 208 209 208 205 204 198 193 201 203 197 200 201 191 177 167 167 157 151 184 179 173 171 169 161 142 134 126 108 101 95 93 95 99 100 96 101 102 99 99 95 90 74 47 14 5 352 347 341 340 339 331 330 324 335 352 5 7 357 348 352 356 1 5 2 356 344 340 341 343 344 348
181 182 189 192 196 203 204 204 208 208 206 203 204 207 208 211 212 210 207 201 199 203 203 200 202 201 195 184 173 171 164 168 190 180 173 174 174 171 157 138 125 117 104 89 93 98 96 94 93 96 93 86 79 63 33 5 344 322 318 320 318 317 319 320 314 312 312 316 327 338 352 352 341 337 336 337 339 339 336 330 333 333 333 337 341
183 184 190 195 197 199 202 206 210 210 209 206 209 211 208 213 214 212 209 205 203 202 206 209 206 200 195 189 177 173 174 183 187 178 176 175 175 178 170 154 135 112 93 93 97 95 83 61 60 58 63 68 43 14 360 339 328 317 306 307 310 308 311 314 312 308 298 292 309 327 338 337 339 337 326 316 315 318 318 317 321 325 328 333 340
183 188 195 197 196 196 201 207 209 212 212 207 210 212 210 215 214 211 210 205 204 203 208 213 207 200 194 190 180 176 180 186 182 179 181 181 184 186 172 178 173 143 126 108 77 72 70 30 22 27 30 35 11 354 350 338 332 330 316 308 309 309 310 311 310 304 299 296 296 308 314 315 326 336 337 326 313 309 308 309 312 320 323 329 342
185 190 197 197 196 199 205 206 209 211 211 208 210 211 208 214 215 212 209 205 205 205 208 214 208 201 196 188 178 180 185 183 177 178 184 183 188 193 174 185 203 178 183 132 77 30 17 14 6 7 357 345 343 342 344 341 339 337 327 321 313 312 314 312 311 304 295 294 289 294 299 303 313 319 326 331 325 315 309 309 308 315 321 327 341
190 191 195 197 196 207 215 210 212 210 209 213 213 211 206 209 214 212 210 208 208 207 209 214 210 203 196 187 179 183 187 182 174 179 188 184 182 196 183 207 222 194 261 236 145 341 315 348 348 342 336 325 331 333 334 337 335 331 329 324 314 315 316 313 313 308 296 292 290 291 294 296 300 300 304 311 315 317 314 310 311 315 318 322 335
199 196 196 199 196 218 233 216 215 211 209 218 215 210 207 204 212 213 210 209 211 212 213 215 212 203 192 186 186 188 188 183 175 181 190 183 180 191 197 228 234 217 257 263 280 303 297 304 318 328 322 319 318 317 323 327 321 319 320 314 311 318 317 314 313 310 302 295 294 295 296 295 295 299 301 301 307 320 320 307 310 318 319 319 325
210 205 203 205 200 223 240 208 208 216 214 219 214 210 207 204 209 212 210 208 209 213 216 215 209 198 189 189 193 192 189 182 178 186 189 183 186 187 202 233 233 234 256 270 283 281 294 299 309 312 299 309 316 312 316 321 315 315 318 311 312 317 315 314 312 308 300 295 297 298 298 295 294 298 303 305 304 312 318 310 306 311 313 313 315
220 209 207 211 200 214 230 206 204 215 216 218 216 213 207 204 205 207 211 208 204 207 211 211 204 195 191 194 195 193 190 183 184 191 188 187 191 186 203 227 229 244 254 260 268 274 288 297 306 300 302 314 313 314 316 317 315 315 319 317 314 313 312 312 309 305 298 295 296 296 301 300 297 295 291 290 291 302 314 312 305 309 314 314 313
227 210 207 213 201 204 220 222 213 207 210 215 216 212 204 203 202 203 210 207 203 204 205 201 197 194 194 198 197 194 191 185 188 193 191 193 194 191 213 229 234 247 256 253 269 286 286 300 280 275 313 333 307 312 314 312 315 312 316 319 314 312 311 312 313 308 300 299 295 296 304 301 297 296 288 285 292 305 309 306 308 315 321 323 318
229 215 216 225 216 209 219 233 227 207 203 208 210 206 202 203 199 200 207 205 204 204 204 199 194 195 197 200 200 195 192 186 188 194 193 194 192 195 215 222 223 241 256 253 261 274 271 302 291 281 321 335 308 313 314 314 316 310 317 317 313 316 317 322 330 325 315 312 306 304 308 303 300 300 295 287 288 299 295 291 306 317 324 329 325
223 219 221 229 230 222 223 236 237 219 208 205 206 204 204 204 197 199 203 203 203 201 203 201 194 197 200 200 200 197 192 188 189 193 194 196 198 202 217 222 223 235 239 241 248 254 256 278 309 305 322 319 308 309 311 317 313 310 323 323 321 328 326 334 342 347 348 336 324 319 321 317 313 305 302 298 288 297 283 280 304 317 316 325 332
221 220 217 223 233 226 220 232 244 237 219 207 211 214 213 209 198 197 198 199 203 199 199 199 193 200 204 201 202 199 193 189 191 193 193 198 203 206 223 232 235 240 245 252 261 262 262 272 297 307 309 305 303 300 305 315 310 315 325 324 328 330 322 336 340 349 355 348 337 329 332 330 328 319 308 305 297 305 300 284 298 298 297 316 331
210 216 214 220 230 226 220 231 248 246 222 208 216 222 218 208 196 196 194 193 199 196 195 198 194 198 206 203 202 201 196 191 191 193 195 201 207 207 215 238 245 245 249 257 263 271 275 277 286 295 298 299 300 297 304 311 311 318 321 319 326 325 320 342 345 347 348 349 346 338 340 343 339 321 312 312 302 304 310 300 286 287 298 314 318
202 214 212 214 221 229 232 239 253 252 224 214 216 215 213 209 202 200 196 190 194 192 192 198 196 195 203 206 204 201 199 194 192 195 199 208 213 214 214 229 248 245 250 266 270 277 282 280 280 280 285 294 297 295 300 308 313 319 322 321 320 319 321 336 340 339 338 345 347 347 351 350 346 329 327 339 328 311 316 316 295 295 307 311 302
209 222 211 210 216 231 238 243 256 251 222 221 220 207 206 210 205 203 199 196 197 195 194 197 198 197 197 202 204 203 202 197 196 199 203 213 216 221 226 229 249 249 246 269 274 272 279 284 283 279 281 287 291 296 297 299 304 309 318 322 317 315 322 330 333 328 332 341 341 345 344 335 342 343 337 336 331 325 326 326 303 291 302 302 291
206 228 218 210 213 226 234 244 257 239 209 220 222 207 203 204 196 194 193 192 194 195 195 192 196 199 194 196 203 205 204 200 199 202 204 214 217 222 230 227 239 253 246 252 261 272 283 285 285 285 284 284 286 295 297 297 301 303 310 313 306 305 313 321 325 322 326 338 340 339 337 334 344 356 346 333 332 334 328 326 310 294 297 284 271
216 246 233 210 208 221 228 240 255 234 210 215 214 204 203 199 191 189 189 187 189 191 191 188 192 196 189 191 201 205 206 200 200 206 206 211 218 223 229 226 228 246 253 257 262 271 278 276 277 275 269 276 287 297 295 294 300 304 305 302 296 296 302 310 318 322 323 332 340 338 339 341 344 351 349 344 338 331 322 327 320 298 293 284 285
227 241 226 208 209 226 232 236 250 238 215 210 206 204 201 196 192 191 192 188 187 191 191 188 188 190 189 191 197 205 208 199 198 209 210 210 218 223 228 227 229 240 248 257 263 262 267 267 272 278 277 283 292 293 292 296 301 305 307 306 301 297 297 301 311 318 320 325 334 337 339 341 341 339 342 345 338 334 325 322 324 299 279 281 291
219 221 213 207 209 227 235 232 241 239 218 205 202 203 197 195 196 193 194 190 187 194 195 193 192 191 193 194 193 199 207 204 204 211 211 213 220 223 226 228 230 240 247 254 257 256 260 264 271 281 282 282 284 284 290 298 299 300 304 303 303 304 301 301 307 311 317 321 327 335 338 338 341 340 341 347 345 343 337 325 335 346 268 273 279
213 213 209 205 204 220 229 229 236 234 218 207 203 202 192 193 202 197 195 196 192 194 194 195 197 196 197 199 198 197 199 205 211 216 216 217 222 223 224 231 234 241 248 246 247 253 262 270 276 274 268 268 271 279 286 290 292 294 297 295 296 304 306 305 309 312 318 320 321 329 336 338 341 346 347 352 354 353 354 351 357 10 302 291 284
214 211 209 205 201 212 223 231 237 233 220 211 203 203 194 192 204 200 195 199 198 195 193 195 198 199 197 199 204 203 197 200 209 219 223 222 225 225 223 230 237 242 248 251 253 258 263 267 267 269 274 278 274 274 278 283 291 295 296 290 288 295 300 301 306 311 315 319 322 326 333 339 339 346 348 347 0 6 1 12 26 24 4 318 270
Height
1543 1545 1546 1547 1548 1548 1550 1551 1552 1553 1553 1554 1555 1555 1555 1556 1556 1556 1557 1558 1558 1559 1560 1560 1560 1561 1561 1561 1561 1561 1561 1561 1561 1561 1561 1562 1561 1562 1562 1562 1562 1562 1562 1562 1562 1562 1562 1563 1563 1563 1563 1564 1564 1564 1564 1564 1565 1565 1566 1566 1567 1567 1567 1568 1568 1569 1569 1569 1570 1571 1571 1572 1572 1572 1572 1572 1572 1573 1573 1573 1573 1573 1573 1573 1573
1543 1545 1546 1548 1548 1549 1551 1551 1553 1553 1554 1554 1555 1556 1556 1557 1557 1558 1558 1558 1559 1560 1560 1561 1561 1562 1562 1562 1562 1561 1562 1562 1562 1562 1562 1562 1562 1562 1562 1562 1562 1562 1562 1563 1563 1563 1563 1563 1564 1564 1564 1564 1565 1565 1565 1566 1566 1566 1567 1567 1567 1567 1568 1568 1569 1569 1569 1570 1571 1571 1572 1572 1572 1572 1573 1573 1573 1573 1573 1573 1573 1574 1574 1574 1573
1544 1546 1547 1548 1549 1550 1551 1552 1553 1554 1555 1555 1556 1556 1557 1558 1558 1559 1558 1559 1560 1561 1561 1562 1562 1563 1563 1562 1562 1562 1562 1562 1562 1563 1563 1563 1563 1563 1563 1563 1563 1563 1563 1564 1564 1564 1564 1564 1564 1564 1565 1565 1565 1566 1566 1567 1567 1567 1567 1568 1568 1568 1568 1569 1569 1569 1570 1570 1571 1572 1573 1573 1573 1573 1573 1573 1573 1573 1573 1574 1574 1574 1574 1574 1574
1544 1546 1547 1549 1550 1550 1551 1552 1553 1554 1555 1555 1556 1557 1557 1558 1558 1559 1559 1560 1561 1561 1562 1563 1563 1563 1563 1563 1563 1563 1563 1563 1563 1563 1563 1564 1564 1564 1564 1564 1563 1564 1564 1564 1565 1565 1565 1565 1565 1565 1566 1566 1566 1566 1567 1567 1568 1568 1568 1568 1569 1569 1569 1569 1569 1570 1570 1571 1571 1572 1573 1573 1573 1573 1573 1573 1574 1574 1574 1574 1574 1574 1575 1575 1574
1545 1546 1548 1549 1551 1551 1552 1553 1554 1555 1555 1556 1557 1557 1558 1559 1559 1560 1560 1561 1561 1562 1563 1563 1564 1564 1564 1564 1564 1564 1564 1564 1564 1564 1564 1564 1564 1564 1564 1564 1564 1564 1565 1565 1565 1565 1565 1566 1566 1566 1567 1567 1567 1567 1568 1568 1568 1568 1568 1569 1569 1569 1570 1570 1570 1570 1570 1571 1572 1572 1573 1573 1573 1573 1573 1573 1574 1574 1574 1574 1575 1575 1575 1576 1575
1546 1547 1549 1550 1551 1551 1553 1553 1554 1555 1555 1557 1557 1558 1559 1559 1560 1560 1561 1561 1562 1563 1563 1564 1564 1565 1565 1565 1565 1565 1565 1565 1565 1565 1565 1565 1565 1565 1565 1565 1565 1565 1565 1565 1565 1566 1566 1566 1567 1567 1567 1568 1568 1568 1569 1569 1569 1569 1569 1569 1569 1570 1570 1570 1570 1570 1571 1572 1572 1573 1573 1573 1573 1573 1573 1573 1573 1574 1574 1575 1575 1575 1576 1576 1575
1547 1548 1549 1550 1551 1552 1553 1554 1555 1556 1556 1557 1558 1559 1559 1560 1561 1561 1562 1562 1563 1563 1564 1564 1565 1565 1565 1566 1566 1566 1566 1566 1566 1566 1566 1566 1566 1566 1566 1565 1565 1565 1565 1566 1566 1566 1566 1567 1568 1568 1568 1569 1569 1569 1570 1570 1570 1570 1570 1570 1570 1570 1570 1570 1570 1570 1571 1572 1573 1573 1573 1573 1573 1573 1573 1573 1573 1574 1574 1575 1575 1575 1576 1576 1576
1548 1549 1550 1551 1552 1552 1553 1554 1555 1556 1557 1558 1558 1559 1560 1561 1561 1562 1562 1563 1564 1564 1564 1565 1565 1566 1566 1566 1566 1567 1567 1566 1567 1566 1566 1566 1566 1566 1566 1566 1566 1566 1566 1566 1566 1567 1567 1568 1568 1569 1569 1570 1570 1570 1570 1570 1571 1571 1571 1571 1570 1570 1570 1570 1570 1571 1571 1572 1572 1573 1573 1573 1573 1573 1573 1574 1574 1574 1574 1575 1575 1575 1575 1576 1576
1549 1550 1550 1551 1552 1553 1554 1554 1556 1557 1557 1558 1559 1560 1560 1561 1562 1563 1563 1564 1564 1565 1565 1565 1566 1566 1567 1567 1567 1567 1567 1567 1568 1568 1567 1567 1567 1567 1567 1566 1566 1566 1566 1566 1567 1567 1568 1568 1569 1569 1569 1570 1570 1570 1571 1571 1571 1571 1571 1571 1571 1571 1570 1570 1570 1571 1572 1572 1572 1573 1573 1574 1574 1573 1573 1574 1574 1575 1575 1575 1575 1575 1575 1576 1576
1550 1551 1552 1552 1553 1554 1554 1555 1556 1557 1558 1558 1559 1560 1561 1562 1563 1564 1564 1565 1565 1565 1566 1566 1567 1567 1567 1568 1568 1568 1568 1569 1569 1569 1568 1568 1568 1568 1568 1567 1567 1567 1567 1567 1567 1568 1568 1569 1569 1569 1570 1570 1570 1571 1571 1571 1572 1572 1572 1571 1571 1571 1571 1571 1571 1572 1573 1573 1573 1573 1573 1574 1575 1574 1574 1574 1574 1575 1575 1575 1575 1575 1575 1575 1575
1551 1552 1554 1553 1554 1555 1555 1556 1557 1558 1558 1559 1560 1561 1561 1562 1563 1564 1565 1565 1566 1566 1566 1567 1567 1567 1568 1568 1568 1569 1569 1569 1570 1570 1570 1569 1569 1569 1569 1568 1568 1568 1568 1568 1568 1568 1569 1570 1570 1570 1570 1571 1571 1571 1572 1572 1572 1572 1572 1571 1571 1571 1571 1571 1571 1573 1573 1573 1573 1574 1574 1574 1574 1574 1574 1574 1574 1575 1575 1575 1575 1575 1575 1575 1575
1552 1553 1554 1554 1554 1555 1556 1556 1557 1558 1558 1559 1560 1561 1562 1563 1564 1564 1565 1566 1566 1567 1567 1568 1568 1568 1568 1569 1569 1569 1570 1570 1570 1571 1571 1571 1571 1570 1570 1570 1570 1569 1569 1569 1569 1570 1570 1570 1571 1571 1571 1571 1572 1572 1573 1573 1572 1572 1572 1571 1571 1571 1571 1571 1572 1574 1574 1573 1573 1574 1575 1575 1575 1574 1574 1574 1574 1574 1575 1575 1575 1575 1575 1575 1574
1553 1553 1554 1554 1555 1556 1556 1557 1558 1558 1559 1560 1560 1561 1562 1563 1564 1564 1565 1566 1567 1567 1568 1568 1568 1569 1569 1569 1569 1570 1570 1570 1571 1571 1571 1572 1572 1572 1571 1571 1571 1571 1570 1570 1571 1571 1571 1571 1571 1572 1572 1573 1573 1573 1574 1573 1573 1573 1572 1572 1572 1572 1572 1572 1573 1574 1574 1574 1573 1574 1574 1575 1575 1574 1574 1574 1574 1574 1574 1574 1574 1574 1574 1574 1574
1553 1554 1554 1555 1556 1556 1557 1558 1558 1559 1559 1560 1561 1562 1562 1563 1564 1565 1565 1566 1567 1568 1568 1569 1569 1569 1569 1570 1570 1570 1571 1571 1572 1572 1572 1572 1573 1572 1572 1572 1572 1572 1571 1572 1572 1572 1572 1572 1573 1573 1573 1574 1574 1575 1574 1574 1574 1574 1573 1573 1573 1573 1573 1573 1574 1574 1574 1574 1574 1574 1574 1574 1574 1574 1574 1574 1574 1574 1574 1574 1574 1574 1574 1573 1573
1554 1555 1555 1556 1556 1557 1558 1558 1559 1560 1560 1561 1561 1562 1562 1563 1564 1565 1565 1566 1567 1568 1568 1569 1569 1569 1569 1570 1570 1571 1571 1571 1572 1572 1573 1573 1573 1573 1573 1573 1573 1573 1573 1573 1573 1573 1573 1573 1574 1574 1574 1575 1575 1576 1575 1575 1575 1574 1574 1574 1574 1573 1573 1574 1575 1575 1574 1574 1574 1574 1575 1575 1574 1574 1574 1574 1574 1574 1574 1574 1574 1574 1573 1573 1573
1555 1556 1556 1556 1556 1558 1558 1559 1560 1560 1561 1561 1561 1561 1562 1563 1564 1565 1566 1566 1567 1568 1569 1569 1570 1570 1570 1570 1571 1571 1571 1571 1572 1573 1573 1573 1574 1574 1574 1574 1574 1573 1574 1574 1574 1574 1574 1574 1575 1575 1576 1576 1576 1576 1576 1576 1576 1575 1575 1575 1574 1574 1574 1574 1575 1575 1575 1575 1574 1575 1576 1575 1574 1574 1574 1574 1574 1574 1574 1574 1574 1573 1573 1573 1573
1555 1556 1557 1557 1557 1558 1559 1560 1560 1561 1561 1562 1562 1561 1562 1563 1564 1565 1565 1566 1567 1568 1569 1570 1570 1571 1571 1571 1571 1571 1572 1572 1572 1573 1573 1574 1574 1574 1575 1574 1574 1574 1574 1575 1575 1575 1575 1575 1576 1576 1577 1577 1577 1577 1577 1577 1576 1576 1576 1575 1575 1575 1575 1574 1575 1576 1575 1575 1575 1575 1576 1575 1574 1574 1574 1574 1574 1574 1574 1574 1573 1573 1573 1573 1573
1555 1556 1557 1557 1557 1558 1559 1560 1560 1561 1562 1562 1562 1562 1563 1563 1564 1564 1565 1566 1566 1567 1569 1570 1571 1571 1572 1572 1572 1572 1573 1572 1572 1574 1574 1574 1575 1575 1575 1575 1575 1575 1575 1575 1576 1576 1576 1576 1577 1577 1578 1578 1578 1578 1578 1577 1577 1577 1576 1576 1576 1576 1576 1575 1576 1577 1576 1575 1575 1575 1575 1575 1574 1574 1574 1574 1574 1574 1574 1574 1573 1573 1573 1573 1572
1555 1557 1557 1557 1558 1558 1559 1560 1560 1561 1562 1563 1563 1563 1565 1565 1565 1565 1565 1566 1566 1567 1569 1570 1571 1572 1573 1573 1574 1574 1573 1572 1573 1574 1574 1575 1575 1576 1576 1575 1575 1575 1576 1576 1576 1576 1577 1577 1578 1578 1579 1579 1579 1579 1579 1578 1578 1578 1577 1577 1577 1577 1577 1577 1577 1578 1577 1576 1576 1576 1575 1575 1574 1574 1574 1574 1574 1574 1574 1574 1573 1573 1573 1572 1572
1556 1556 1557 1557 1558 1558 1559 1560 1560 1561 1562 1563 1564 1564 1565 1566 1566 1566 1566 1566 1567 1568 1569 1570 1572 1573 1574 1575 1575 1575 1573 1574 1575 1575 1575 1576 1576 1576 1576 1576 1576 1576 1576 1577 1577 1577 1578 1578 1579 1579 1579 1579 1579 1579 1579 1579 1579 1579 1578 1578 1578 1578 1578 1579 1579 1579 1578 1578 1577 1576 1576 1575 1575 1575 1575 1575 1574 1574 1574 1573 1573 1573 1572 1572 1571
1555 1556 1557 1558 1558 1559 1559 1560 1560 1561 1562 1564 1565 1565 1564 1565 1566 1567 1568 1568 1569 1569 1570 1572 1574 1574 1576 1577 1576 1575 1575 1576 1577 1577 1576 1577 1577 1577 1577 1577 1577 1577 1577 1577 1578 1578 1579 1579 1580 1580 1580 1580 1580 1581 1581 1581 1580 1580 1580 1580 1579 1580 1581 1581 1581 1580 1580 1579 1578 1577 1576 1576 1575 1575 1575 1574 1574 1574 1574 1573 1572 1572 1572 1571 1571
1555 1556 1557 1557 1558 1559 1559 1560 1560 1561 1562 1563 1565 1566 1565 1566 1566 1567 1568 1569 1570 1571 1572 1573 1575 1575 1576 1578 1577 1577 1577 1578 1578 1577 1577 1577 1578 1578 1578 1578 1578 1578 1578 1578 1579 1579 1580 1580 1581 1581 1581 1581 1581 1582 1583 1582 1582 1581 1581 1581 1581 1582 1582 1582 1582 1581 1580 1579 1578 1578 1577 1576 1576 1575 1575 1574 1574 1574 1573 1573 1572 1571 1571 1571 1570
1555 1556 1556 1557 1558 1559 1560 1560 1561 1561 1562 1563 1564 1565 1567 1567 1567 1567 1567 1569 1570 1571 1573 1574 1576 1577 1578 1579 1579 1579 1579 1578 1578 1577 1578 1578 1578 1579 1578 1579 1579 1579 1579 1579 1580 1580 1581 1581 1582 1582 1581 1582 1582 1584 1585 1584 1583 1583 1582 1582 1583 1584 1583 1583 1583 1582 1581 1580 1579 1578 1578 1577 1577 1576 1575 1574 1574 1573 1573 1572 1572 1571 1570 1570 1570
1555 1556 1556 1557 1557 1558 1559 1560 1560 1561 1562 1563 1564 1565 1566 1567 1568 1568 1569 1570 1571 1572 1574 1575 1577 1578 1579 1580 1580 1579 1579 1578 1577 1577 1578 1579 1579 1580 1580 1580 1580 1580 1580 1581 1581 1582 1582 1582 1582 1582 1583 1583 1584 1585 1586 1586 1585 1585 1585 1585 1585 1585 1584 1584 1583 1582 1581 1580 1580 1579 1579 1578 1577 1577 1576 1575 1574 1574 1573 1572 1571 1570 1570 1569 1569
1555 1556 1556 1556 1557 1558 1559 1560 1560 1561 1562 1563 1563 1564 1565 1566 1568 1568 1569 1571 1572 1573 1574 1575 1575 1576 1577 1578 1578 1578 1577 1577 1577 1578 1578 1579 1580 1581 1581 1581 1581 1582 1582 1582 1583 1583 1584 1584 1584 1584 1585 1585 1586 1586 1586 1586 1586 1586 1586 1586 1585 1585 1585 1585 1583 1582 1581 1580 1580 1580 1579 1579 1578 1577 1577 1576 1575 1574 1573 1572 1571 1570 1569 1569 1568
1554 1555 1555 1556 1556 1557 1558 1559 1560 1561 1562 1562 1563 1563 1564 1565 1567 1567 1568 1570 1571 1572 1573 1573 1574 1574 1575 1575 1576 1576 1576 1577 1577 1578 1578 1580 1581 1581 1582 1582 1583 1583 1583 1584 1585 1585 1585 1586 1586 1586 1587 1587 1587 1586 1587 1587 1587 1587 1586 1586 1586 1586 1585 1584 1583 1582 1581 1581 1580 1580 1580 1579 1578 1578 1577 1576 1575 1574 1573 1572 1571 1570 1568 1568 1567
1554 1555 1555 1555 1556 1557 1558 1559 1560 1561 1561 1562 1562 1563 1564 1565 1566 1566 1567 1568 1569 1570 1571 1571 1572 1573 1573 1574 1575 1575 1576 1577 1577 1578 1579 1580 1581 1582 1583 1583 1584 1584 1584 1585 1586 1586 1586 1587 1587 1587 1587 1588 1587 1587 1587 1587 1587 1588 1587 1586 1586 1586 1585 1584 1584 1582 1581 1581 1580 1580 1580 1580 1579 1578 1577 1576 1575 1574 1573 1571 1570 1569 1568 1567 1566
1553 1554 1555 1555 1556 1556 1557 1558 1559 1560 1561 1562 1562 1563 1564 1564 1565 1566 1567 1568 1568 1569 1570 1570 1571 1572 1572 1573 1574 1575 1576 1577 1578 1578 1579 1580 1582 1583 1583 1584 1585 1585 1585 1586 1587 1587 1587 1587 1587 1587 1587 1588 1588 1588 1588 1588 1587 1588 1588 1587 1586 1586 1585 1584 1584 1583 1582 1581 1581 1580 1580 1579 1579 1578 1577 1576 1575 1574 1573 1571 1570 1569 1567 1566 1565
1553 1554 1555 1555 1556 1556 1556 1557 1558 1559 1560 1561 1562 1563 1563 1564 1565 1565 1566 1567 1568 1569 1569 1570 1570 1571 1572 1572 1573 1574 1576 1578 1578 1579 1580 1581 1582 1583 1584 1585 1585 1585 1586 1587 1587 1587 1588 1588 1588 1588 1588 1588 1589 1588 1588 1588 1588 1588 1588 1588 1587 1587 1586 1585 1584 1584 1583 1582 1581 1580 1579 1579 1579 1578 1577 1576 1575 1574 1572 1571 1569 1568 1567 1566 1565
1553 1554 1555 1555 1556 1556 1556 1557 1558 1559 1560 1561 1561 1562 1563 1564 1564 1565 1566 1567 1567 1568 1569 1570 1570 1571 1572 1572 1573 1574 1576 1578 1578 1578 1580 1581 1582 1583 1584 1585 1586 1586 1587 1587 1587 1587 1588 1589 1589 1589 1589 1589 1589 1589 1588 1589 1589 1588 1588 1588 1587 1587 1586 1585 1585 1584 1584 1582 1581 1580 1579 1578 1578 1577 1577 1576 1575 1573 1572 1570 1569 1567 1566 1565 1565
1553 1554 1554 1555 1555 1556 1556 1557 1557 1558 1559 1560 1561 1562 1562 1563 1564 1565 1566 1566 1567 1568 1569 1570 1570 1571 1571 1572 1573 1574 1575 1577 1577 1578 1580 1582 1583 1584 1584 1585 1586 1586 1587 1587 1588 1588 1588 1589 1589 1589 1589 1589 1589 1589 1589 1589 1589 1588 1588 1588 1587 1587 1586 1585 1585 1585 1584 1583 1581 1580 1579 1578 1578 1577 1576 1575 1574 1573 1571 1570 1568 1566 1565 1564 1565
1552 1553 1554 1554 1555 1556 1556 1556 1557 1557 1558 1559 1560 1561 1562 1563 1563 1564 1565 1566 1567 1568 1569 1569 1570 1570 1571 1572 1573 1574 1575 1576 1577 1579 1580 1582 1583 1584 1585 1585 1586 1586 1587 1588 1588 1588 1588 1589 1588 1588 1589 1589 1589 1589 1589 1589 1588 1588 1588 1587 1587 1586 1586 1585 1585 1585 1584 1583 1581 1580 1579 1578 1577 1576 1575 1574 1573 1572 1571 1569 1567 1566 1565 1564 1565
1553 1553 1553 1554 1554 1555 1556 1556 1556 1557 1558 1559 1560 1560 1561 1562 1563 1564 1564 1565 1567 1567 1568 1569 1569 1570 1571 1572 1573 1574 1575 1576 1578 1579 1581 1582 1583 1584 1585 1586 1586 1586 1587 1587 1588 1588 1589 1589 1589 1589 1589 1589 1589 1589 1589 1589 1588 1588 1587 1587 1587 1586 1586 1585 1584 1584 1584 1583 1582 1581 1580 1578 1576 1575 1575 1574 1573 1572 1570 1568 1567 1565 1565 1565 1566
1552 1553 1553 1553 1554 1555 1555 1555 1556 1556 1557 1558 1559 1560 1561 1561 1562 1563 1564 1565 1566 1567 1568 1568 1569 1570 1571 1572 1573 1575 1576 1577 1578 1580 1581 1582 1584 1584 1586 1586 1586 1586 1587 1587 1588 1589 1589 1590 1590 1590 1589 1589 1589 1589 1589 1588 1588 1587 1587 1587 1586 1586 1585 1584 1584 1583 1583 1582 1582 1581 1580 1578 1577 1575 1574 1573 1572 1571 1569 1568 1566 1565 1565 1565 1566
1551 1552 1553 1553 1554 1554 1554 1554 1555 1555 1556 1557 1557 1558 1560 1561 1561 1562 1563 1564 1565 1566 1567 1568 1568 1569 1571 1572 1573 1575 1576 1577 1579 1580 1581 1582 1584 1585 1586 1586 1586 1587 1587 1587 1588 1589 1589 1589 1589 1589 1589 1589 1589 1589 1588 1588 1588 1587 1587 1586 1586 1585 1585 1584 1583 1583 1582 1582 1581 1580 1579 1578 1577 1576 1574 1573 1572 1570 1568 1567 1565 1565 1565 1565 1566
1550 1551 1552 1553 1553 1553 1553 1554 1554 1554 1555 1556 1556 1557 1558 1560 1560 1561 1562 1563 1565 1566 1567 1567 1568 1569 1571 1573 1574 1575 1576 1577 1579 1580 1581 1582 1585 1586 1586 1586 1586 1587 1587 1587 1588 1589 1589 1589 1589 1589 1589 1589 1589 1588 1588 1588 1587 1587 1586 1586 1585 1585 1584 1584 1583 1582 1582 1581 1580 1579 1578 1577 1576 1575 1573 1572 1571 1569 1568 1567 1565 1565 1565 1565 1566
1550 1551 1551 1552 1553 1553 1552 1553 1554 1554 1554 1555 1555 1556 1557 1558 1559 1560 1562 1563 1564 1566 1567 1567 1568 1570 1571 1573 1574 1575 1576 1577 1579 1580 1581 1583 1584 1586 1586 1586 1586 1587 1587 1588 1589 1589 1589 1589 1589 1588 1588 1588 1589 1588 1588 1587 1587 1586 1586 1585 1585 1584 1584 1583 1582 1582 1581 1580 1579 1579 1577 1577 1576 1574 1573 1572 1571 1569 1567 1566 1565 1564 1564 1564 1565
1549 1550 1550 1551 1552 1552 1552 1553 1553 1553 1553 1554 1554 1554 1555 1557 1558 1560 1561 1562 1564 1566 1567 1567 1568 1570 1572 1573 1574 1575 1576 1577 1579 1580 1581 1582 1584 1585 1586 1586 1586 1587 1587 1588 1589 1589 1589 1589 1589 1588 1587 1588 1588 1588 1587 1587 1586 1586 1585 1585 1584 1584 1583 1583 1582 1581 1580 1580 1579 1578 1576 1575 1575 1574 1573 1573 1571 1569 1567 1566 1565 1564 1563 1564 1564
1547 1549 1549 1550 1551 1552 1552 1552 1553 1553 1553 1553 1553 1553 1554 1556 1558 1560 1561 1561 1563 1565 1566 1567 1568 1570 1571 1572 1573 1575 1576 1577 1578 1580 1581 1582 1583 1585 1585 1585 1586 1587 1587 1588 1589 1588 1588 1588 1588 1587 1587 1587 1588 1587 1587 1586 1586 1585 1585 1584 1584 1583 1583 1582 1581 1580 1579 1579 1578 1577 1575 1574 1574 1574 1573 1572 1570 1569 1567 1566 1564 1563 1563 1563 1563
1546 1548 1548 1548 1550 1551 1551 1551 1552 1552 1553 1553 1553 1553 1554 1555 1557 1559 1560 1561 1562 1564 1565 1567 1568 1570 1571 1572 1573 1574 1575 1577 1578 1579 1580 1582 1583 1584 1584 1585 1586 1587 1587 1588 1588 1588 1587 1587 1587 1587 1587 1587 1587 1587 1586 1586 1585 1585 1584 1583 1583 1582 1582 1581 1580 1580 1579 1578 1578 1577 1576 1574 1574 1573 1572 1572 1571 1569 1568 1566 1564 1563 1562 1562 1562
1546 1547 1547 1548 1549 1549 1550 1550 1550 1551 1552 1552 1553 1553 1554 1555 1556 1558 1560 1561 1562 1563 1565 1566 1568 1570 1570 1571 1572 1574 1575 1576 1578 1579 1580 1581 1582 1583 1584 1585 1586 1586 1586 1587 1587 1587 1586 1587 1587 1587 1587 1587 1587 1587 1586 1585 1585 1584 1584 1583 1582 1582 1581 1581 1580 1579 1579 1578 1577 1576 1575 1574 1574 1573 1572 1571 1570 1569 1568 1567 1565 1563 1562 1562 1561
1544 1546 1546 1547 1548 1549 1549 1549 1549 1550 1550 1552 1552 1552 1553 1554 1555 1557 1560 1561 1561 1562 1564 1566 1568 1569 1569 1570 1572 1573 1574 1576 1577 1578 1580 1581 1582 1583 1584 1584 1585 1585 1585 1586 1586 1586 1586 1587 1587 1587 1587 1587 1587 1587 1586 1585 1584 1584 1584 1583 1582 1581 1581 1581 1580 1579 1578 1577 1576 1576 1575 1574 1574 1573 1572 1571 1570 1569 1568 1567 1565 1564 1563 1562 1561
1544 1545 1546 1546 1547 1548 1548 1548 1548 1549 1550 1551 1551 1551 1552 1553 1555 1556 1558 1561 1561 1562 1564 1565 1567 1569 1569 1570 1571 1572 1574 1575 1577 1578 1579 1580 1581 1582 1583 1584 1584 1584 1585 1585 1585 1586 1586 1586 1587 1587 1587 1587 1586 1586 1585 1585 1584 1584 1583 1582 1582 1581 1580 1580 1580 1579 1578 1577 1576 1575 1574 1574 1573 1572 1571 1570 1569 1569 1568 1567 1566 1565 1563 1562 1562
1543 1544 1546 1546 1546 1547 1547 1547 1547 1548 1549 1550 1550 1551 1552 1552 1554 1555 1557 1559 1560 1561 1563 1564 1566 1568 1569 1569 1570 1572 1573 1575 1576 1578 1579 1580 1580 1581 1583 1583 1583 1584 1584 1585 1585 1586 1586 1586 1586 1586 1586 1586 1586 1586 1585 1584 1584 1584 1583 1582 1581 1581 1580 1579 1579 1578 1577 1576 1575 1575 1574 1573 1573 1572 1570 1569 1568 1568 1568 1567 1566 1564 1563 1563 1562
1542 1543 1545 1546 1546 1546 1547 1547 1547 1547 1548 1549 1549 1551 1552 1552 1553 1554 1556 1557 1558 1560 1562 1564 1565 1566 1568 1569 1570 1571 1573 1574 1576 1577 1578 1579 1580 1581 1581 1582 1583 1583 1584 1585 1585 1586 1585 1585 1585 1585 1585 1586 1585 1585 1585 1584 1584 1583 1582 1582 1581 1581 1580 1579 1579 1578 1577 1576 1575 1574 1574 1573 1573 1571 1571 1570 1569 1569 1568 1567 1567 1565 1564 1563 1563
1541 1543 1544 1545 1545 1545 1546 1546 1546 1547 1548 1548 1548 1549 1551 1551 1552 1553 1555 1556 1557 1559 1561 1563 1565 1566 1568 1570 1570 1571 1572 1574 1575 1576 1577 1578 1579 1580 1581 1582 1583 1583 1583 1584 1584 1585 1585 1585 1585 1585 1585 1585 1584 1584 1584 1584 1584 1583 1582 1582 1582 1581 1580 1580 1578 1577 1577 1576 1575 1574 1574 1573 1572 1571 1571 1570 1569 1569 1569 1568 1567 1566 1564 1564 1563
1540 1541 1543 1543 1544 1544 1544 1545 1546 1547 1548 1547 1548 1549 1550 1551 1551 1553 1554 1556 1557 1559 1560 1563 1565 1566 1568 1570 1570 1571 1572 1573 1575 1576 1577 1577 1578 1579 1580 1581 1582 1582 1583 1583 1583 1584 1585 1585 1584 1584 1584 1584 1583 1583 1584 1584 1583 1583 1582 1582 1582 1581 1580 1580 1579 1577 1576 1576 1575 1574 1573 1573 1572 1571 1570 1570 1569 1569 1569 1568 1567 1566 1565 1564 1564
1539 1540 1542 1542 1543 1543 1543 1544 1545 1546 1547 1547 1548 1549 1549 1550 1551 1552 1554 1555 1557 1559 1560 1562 1564 1565 1567 1569 1570 1571 1571 1573 1575 1575 1575 1577 1577 1578 1579 1580 1581 1582 1582 1582 1583 1584 1584 1584 1583 1583 1583 1583 1583 1583 1583 1583 1583 1582 1582 1581 1581 1580 1580 1579 1579 1578 1577 1575 1575 1574 1573 1573 1572 1571 1570 1570 1569 1569 1568 1567 1567 1567 1566 1565 1564
1538 1539 1541 1541 1542 1542 1543 1544 1544 1545 1546 1546 1547 1548 1549 1550 1551 1552 1553 1555 1557 1558 1559 1561 1563 1564 1566 1568 1569 1570 1571 1572 1573 1574 1575 1576 1576 1578 1579 1579 1580 1581 1581 1582 1583 1583 1582 1582 1582 1582 1582 1582 1582 1582 1582 1582 1582 1582 1581 1581 1581 1580 1580 1579 1578 1578 1577 1575 1574 1573 1573 1572 1572 1571 1570 1570 1569 1568 1568 1567 1566 1566 1566 1565 1564
1538 1539 1540 1540 1541 1541 1542 1543 1543 1544 1545 1545 1547 1547 1548 1549 1550 1552 1553 1554 1556 1557 1559 1560 1562 1563 1565 1567 1568 1569 1571 1572 1573 1573 1574 1575 1576 1577 1578 1579 1579 1580 1580 1581 1581 1581 1581 1581 1581 1581 1581 1581 1581 1581 1581 1581 1581 1581 1581 1581 1580 1580 1579 1579 1578 1577 1576 1575 1574 1573 1573 1572 1571 1571 1570 1569 1569 1568 1567 1567 1566 1566 1566 1565 1564
1536 1538 1539 1539 1540 1540 1541 1542 1542 1543 1544 1544 1546 1546 1547 1549 1550 1551 1552 1554 1555 1556 1558 1559 1561 1562 1564 1566 1567 1568 1570 1571 1573 1573 1573 1574 1575 1576 1577 1578 1579 1579 1580 1580 1580 1581 1581 1581 1581 1581 1580 1580 1581 1581 1581 1581 1580 1580 1580 1580 1580 1580 1579 1578 1578 1577 1576 1575 1574 1573 1573 1572 1571 1571 1570 1569 1567 1567 1567 1566 1566 1566 1565 1565 1564